Location: Cran-Gévrier
(45.9039°N, 6.1012°E)
Time: 18:26:20
(UTC+00:00)

Tiangong - Visible Passes

Search period start: 10 June 2023 00:00
Search period end: 20 June 2023 00:00
Orbit: 386 x 390 km, 41.5° (Epoch: 10 June)

Date Brightness Start Highest point End Pass type
(mag) Time Alt. Az. Time Alt. Az. Time Alt. Az.
10 Jun -1.5 01:47:53 35° SSW 01:48:16 36° S 01:51:15 10° ESE visible
11 Jun 0.3 00:52:06 14° ESE 00:52:06 14° ESE 00:52:40 10° ESE visible
11 Jun -1.1 02:24:24 16° WSW 02:26:15 28° SSW 02:29:03 10° SE visible
12 Jun -0.7 01:28:54 24° SE 01:28:54 24° SE 01:30:36 10° ESE visible
12 Jun -0.3 03:02:04 10° WSW 03:04:04 15° SSW 03:06:03 10° SSE visible
13 Jun -0.6 02:06:12 20° S 02:06:12 20° S 02:08:01 10° SSE visible
15 Jun -0.2 21:30:12 10° SW 21:31:18 17° SSW 21:31:18 17° SSW visible
16 Jun -0.7 20:31:45 10° SSW 20:34:13 21° SSE 20:36:09 13° ESE visible
16 Jun 0.1 22:07:43 10° WSW 22:08:27 15° WSW 22:08:27 15° WSW visible
17 Jun -1.4 21:08:58 10° WSW 21:11:53 33° S 21:12:44 27° SE visible
18 Jun -1.1 20:10:17 10° SW 20:13:03 27° SSE 20:15:49 10° ESE visible
18 Jun -1.2 21:46:37 10° WSW 21:48:57 32° SSW 21:48:57 32° SSW visible
19 Jun -1.5 20:47:43 10° WSW 20:50:41 36° S 20:52:42 17° ESE visible
19 Jun 0.4 22:24:28 10° WSW 22:24:56 13° WSW 22:24:56 13° WSW visible
